Temp
-1 -1 -1 -1 -2 -2 -2 -2 -2 -2 -2 -2 -2 -2 -2 -3 -5 -7 -9 -10 -11 -10 -9 -9 -9 -8 -9
-1 -2 -2 -2 -2 -2 -3 -3 -2 -2 -2 -2 -2 -2 -3 -5 -8 -9 -11 -11 -11 -10 -10 -9 -9 -9 -9
-1 -2 -2 -2 -3 -3 -3 -3 -2 -2 -2 -2 -3 -3 -5 -8 -10 -11 -12 -11 -11 -11 -10 -9 -9 -9 -9
-2 -2 -2 -3 -3 -3 -3 -3 -3 -2 -3 -4 -4 -5 -7 -9 -11 -11 -11 -11 -11 -11 -10 -10 -10 -10 -9
-3 -3 -3 -3 -4 -4 -3 -3 -3 -3 -4 -4 -5 -7 -9 -11 -11 -11 -11 -11 -11 -11 -10 -10 -10 -10 -9
-3 -4 -4 -4 -4 -4 -3 -3 -3 -3 -4 -6 -8 -9 -10 -10 -11 -11 -11 -11 -12 -11 -11 -11 -10 -10 -10
-4 -4 -5 -4 -4 -4 -4 -4 -4 -4 -5 -8 -10 -11 -11 -10 -11 -11 -12 -11 -12 -12 -11 -11 -11 -10 -10
-5 -5 -5 -5 -5 -4 -4 -4 -6 -6 -7 -8 -10 -11 -11 -11 -11 -12 -12 -12 -12 -12 -12 -11 -11 -11 -10
-6 -6 -6 -5 -5 -5 -5 -5 -5 -7 -8 -9 -10 -11 -12 -11 -12 -12 -12 -12 -12 -12 -12 -12 -11 -11 -11
-6 -6 -6 -6 -5 -5 -5 -6 -6 -7 -9 -10 -11 -11 -10 -12 -11 -12 -12 -12 -12 -12 -12 -12 -12 -11 -11
-7 -7 -6 -6 -6 -6 -6 -7 -8 -9 -10 -11 -12 -12 -12 -11 -12 -12 -12 -12 -12 -12 -12 -12 -12 -12 -12
-7 -7 -7 -7 -7 -7 -8 -9 -9 -10 -11 -12 -12 -12 -12 -12 -12 -12 -12 -12 -13 -13 -12 -12 -12 -12 -12
-7 -7 -7 -7 -7 -8 -9 -10 -11 -11 -12 -12 -12 -12 -12 -12 -12 -12 -12 -12 -13 -13 -13 -13 -13 -12 -12
-8 -7 -7 -7 -8 -8 -9 -10 -11 -12 -12 -12 -12 -12 -13 -12 -13 -13 -13 -13 -13 -13 -13 -13 -13 -13 -13
-8 -8 -8 -8 -9 -9 -10 -10 -11 -12 -13 -13 -13 -13 -13 -13 -13 -13 -13 -13 -13 -14 -14 -14 -14 -14 -13
-9 -9 -9 -9 -10 -10 -11 -11 -12 -13 -13 -13 -13 -13 -14 -13 -13 -13 -13 -14 -14 -14 -14 -14 -14 -14 -13
-9 -9 -10 -10 -11 -12 -12 -12 -13 -14 -14 -13 -13 -13 -13 -14 -13 -13 -14 -14 -14 -14 -14 -14 -14 -14 -14
Height
3134 3129 3124 3120 3115 3109 3104 3099 3092 3087 3078 3071 3061 3052 3042 3030 3019 3009 3001 2994 2988 2983 2977 2970 2959 2951 2940
3129 3124 3119 3114 3109 3104 3099 3094 3086 3082 3072 3064 3053 3044 3032 3022 3011 3004 2997 2992 2987 2980 2973 2967 2958 2950 2942
3121 3116 3111 3107 3103 3097 3092 3087 3079 3074 3063 3055 3045 3035 3024 3014 3008 3001 2995 2990 2985 2979 2973 2966 2958 2950 2942
3112 3108 3103 3099 3094 3088 3086 3080 3072 3065 3055 3047 3037 3025 3017 3010 3004 3000 2996 2991 2985 2978 2971 2965 2958 2952 2945
3105 3100 3094 3090 3086 3081 3076 3070 3063 3056 3049 3039 3029 3019 3014 3010 3005 3000 2994 2990 2985 2978 2970 2965 2959 2953 2947
3096 3092 3086 3082 3078 3072 3068 3063 3056 3049 3041 3031 3021 3012 3008 3005 3002 2999 2993 2990 2985 2979 2972 2966 2961 2955 2949
3088 3084 3080 3075 3070 3066 3062 3056 3049 3042 3035 3026 3017 3010 3007 3004 3001 2998 2993 2988 2984 2979 2973 2967 2963 2956 2951
3080 3076 3072 3068 3065 3060 3054 3049 3043 3036 3028 3022 3014 3010 3004 3003 2999 2996 2992 2988 2984 2979 2974 2969 2965 2960 2953
3072 3068 3065 3062 3058 3053 3048 3043 3037 3029 3022 3017 3010 3009 3003 3000 2998 2994 2991 2988 2984 2980 2975 2971 2967 2963 2958
3064 3062 3059 3055 3051 3046 3041 3036 3029 3024 3017 3014 3009 3004 3003 2998 2994 2992 2989 2986 2984 2980 2976 2972 2968 2964 2960
3059 3056 3053 3049 3045 3039 3035 3029 3023 3017 3011 3008 3007 3002 2999 2995 2994 2990 2987 2984 2982 2979 2976 2972 2968 2965 2961
3053 3050 3048 3044 3039 3034 3029 3024 3017 3011 3007 3004 3001 2998 2995 2992 2990 2988 2984 2981 2979 2977 2975 2971 2968 2965 2961
3046 3043 3040 3036 3032 3028 3024 3018 3013 3008 3003 3001 2998 2996 2992 2988 2986 2984 2981 2978 2976 2974 2972 2970 2967 2965 2962
3039 3036 3032 3029 3025 3021 3017 3012 3008 3004 2999 2997 2995 2992 2989 2984 2982 2981 2978 2975 2973 2971 2969 2967 2965 2962 2960
3031 3028 3026 3023 3019 3015 3011 3007 3003 2999 2997 2993 2990 2987 2984 2982 2979 2977 2975 2972 2970 2969 2968 2966 2963 2961 2958
3024 3022 3019 3016 3013 3009 3005 3001 2998 2995 2992 2989 2986 2983 2980 2978 2976 2974 2971 2969 2967 2966 2965 2964 2962 2960 2958
3016 3014 3012 3009 3007 3004 3000 2997 2994 2991 2988 2985 2981 2978 2977 2975 2972 2969 2967 2965 2964 2963 2962 2961 2960 2958 2957
Wind_Speed
34 35 38 39 39 39 39 39 41 42 47 52 56 60 62 63 60 52 44 37 35 33 37 36 36 39 40
35 34 37 38 38 37 36 37 40 43 49 53 57 59 61 56 51 42 35 31 30 31 33 34 35 34 29
35 36 37 38 36 36 36 36 41 45 51 55 56 58 55 48 41 35 30 32 28 29 31 31 31 31 33
37 37 38 37 37 38 36 37 42 48 52 54 54 55 48 41 35 31 30 30 27 29 30 29 27 28 28
37 37 37 36 36 36 37 41 47 50 51 52 51 49 41 35 30 28 29 29 28 28 28 26 24 25 25
35 35 35 35 35 37 39 43 47 52 53 49 44 42 36 32 28 28 25 27 28 27 25 23 22 22 24
33 34 34 35 34 37 40 45 48 51 49 42 34 31 31 27 26 22 22 24 24 24 22 20 20 21 24
31 32 32 33 35 39 42 46 45 46 44 36 29 23 26 25 23 19 19 22 22 21 18 18 19 20 23
29 30 31 34 37 40 42 45 45 42 40 33 29 20 20 21 20 17 17 20 20 19 16 16 18 18 20
28 29 31 34 37 40 43 43 44 42 38 31 22 23 16 16 19 17 16 18 19 17 15 14 16 18 18
26 28 31 34 36 38 40 41 40 36 35 29 23 23 20 17 16 16 15 16 16 16 14 13 14 16 18
26 28 31 33 34 35 36 35 36 35 32 26 24 25 22 16 17 14 15 15 17 16 15 13 14 15 16
26 29 30 32 34 33 33 31 30 29 28 24 25 23 21 19 16 16 15 14 15 15 15 13 13 14 15
27 28 29 30 32 33 32 30 27 23 23 24 24 21 18 20 18 16 16 14 13 13 14 14 15 15 14
26 26 27 28 29 30 31 30 29 25 19 21 22 20 19 18 17 17 15 13 12 12 13 13 13 14 14
24 25 25 25 26 27 29 29 27 23 21 21 19 17 20 20 18 17 15 13 13 13 12 11 11 11 12
23 23 23 24 25 25 26 26 24 22 22 22 19 19 18 18 17 17 14 14 14 13 12 10 11 11 12
Wind_Direction
316 317 319 320 321 320 321 322 320 322 321 323 324 326 327 330 333 335 336 336 332 330 334 340 342 345 358
313 315 317 319 319 319 319 320 319 322 322 324 326 327 330 335 338 339 337 333 337 337 344 346 347 350 353
314 315 317 317 317 318 319 322 321 323 325 327 327 329 336 342 342 337 338 336 337 340 346 348 351 354 2
314 314 316 317 318 319 320 322 322 326 328 329 332 336 341 346 344 337 334 336 341 343 347 352 354 357 8
310 313 315 316 317 319 323 325 326 325 330 332 337 338 344 347 342 336 332 336 343 347 349 353 358 359 16
309 313 315 315 318 323 323 323 324 326 332 337 342 340 344 346 339 334 330 340 343 347 351 355 3 2 14
309 313 313 314 319 321 322 325 327 328 333 341 343 340 340 337 332 328 333 342 346 348 353 358 8 5 11
307 310 313 316 319 320 323 325 330 331 336 343 339 342 333 330 330 329 335 341 351 351 355 1 8 9 8
308 309 311 315 319 322 324 324 326 333 338 344 333 339 336 328 330 329 329 337 348 350 356 1 1 7 10
306 306 311 316 320 321 323 325 328 333 338 342 333 328 330 330 326 333 321 322 340 345 350 354 356 355 4
299 305 311 316 319 322 324 326 331 336 335 337 333 330 330 326 322 324 323 316 326 338 341 342 341 348 356
296 305 311 316 319 322 324 329 332 333 332 333 330 328 324 324 321 319 316 314 319 328 331 333 337 342 347
299 306 311 315 318 321 326 332 332 331 328 327 325 321 317 320 323 315 317 312 317 320 325 330 332 337 344
299 307 312 316 318 322 328 331 331 328 321 320 319 317 317 317 317 316 315 317 319 319 321 325 332 335 338
301 307 311 315 320 324 328 330 328 324 318 316 316 317 317 314 312 312 310 312 310 310 315 324 331 334 338
302 307 312 318 323 325 327 327 325 320 316 314 314 315 316 313 313 306 303 304 301 301 306 314 322 331 336
301 306 314 319 324 326 325 324 321 315 312 312 314 312 312 308 310 306 306 300 295 293 297 306 315 319 322